Theta_e
298 297 296 294 290 289 286 285 282 278 278 278 279 283 283 283 284 284 282 285 290 290 290 290 291 291 292 293 294 295 295 295 295 295 294 294 293 293
298 296 296 293 292 289 287 285 283 282 279 280 280 281 283 283 284 283 281 285 287 288 289 290 290 291 291 292 293 293 293 293 294 293 292 292 292 293
297 295 294 291 289 287 285 284 284 283 281 279 280 281 281 281 281 283 282 281 281 287 288 289 289 290 291 291 291 291 291 291 291 291 290 290 291 291
294 292 292 287 287 285 285 283 283 283 281 278 278 279 280 281 280 279 280 281 280 284 287 288 289 290 290 290 290 290 289 289 289 289 288 289 290 289
293 291 288 286 285 284 284 283 282 281 281 279 277 278 278 279 279 279 280 280 280 284 287 288 289 289 289 289 289 288 288 287 287 287 287 287 287 287
289 289 286 286 285 284 283 282 281 281 280 279 277 277 278 279 278 278 278 279 279 281 283 284 285 286 288 288 287 286 285 286 286 286 286 286 286 285
286 286 285 285 285 285 283 282 281 280 279 279 277 277 277 277 277 278 278 278 279 280 279 279 279 279 279 283 283 284 285 285 285 285 285 284 284 283
283 283 283 283 284 286 286 286 283 280 278 278 278 277 278 279 279 278 278 277 275 280 277 276 278 278 278 278 283 284 285 284 284 284 283 283 282 281
284 282 282 283 283 284 286 286 285 286 284 281 279 279 279 279 279 278 278 278 277 279 277 276 278 277 278 279 283 283 283 283 282 281 280 280 279 279
283 282 282 283 283 283 283 282 282 283 284 283 282 281 281 281 281 281 280 278 277 278 278 271 276 275 277 276 281 281 280 279 278 278 277 277 278 277
282 283 283 283 285 286 282 281 281 281 285 286 285 285 284 284 283 280 276 274 273 275 277 275 274 273 273 274 274 277 276 275 275 275 275 276 276 276
281 282 283 284 286 286 282 282 281 281 281 281 282 284 285 285 287 283 279 273 273 270 274 271 271 270 267 270 271 270 270 272 273 273 273 274 274 272
280 281 282 286 287 287 285 283 283 282 282 280 279 279 280 280 280 280 279 277 272 271 275 272 269 267 262 264 268 269 268 267 267 268 271 272 274 273
280 281 283 287 288 288 285 285 286 284 280 280 278 278 277 278 278 278 278 276 276 274 273 272 265 264 260 258 262 266 266 267 267 266 267 270 271 272
282 283 285 287 289 288 288 287 284 284 282 279 278 278 279 278 277 275 275 273 272 273 272 271 267 267 263 259 260 263 264 264 266 266 267 267 266 267
283 283 285 286 286 285 283 285 284 284 283 281 279 276 275 274 273 273 270 269 266 265 270 269 268 267 261 263 263 262 263 260 265 266 266 266 267 268
282 282 282 282 282 282 283 282 282 280 280 277 275 273 273 272 271 270 268 266 264 263 262 262 266 266 265 264 256 261 261 262 265 265 264 264 266 267
283 282 281 281 281 280 280 278 276 276 275 273 272 272 271 270 268 267 265 263 263 260 257 259 260 258 256 258 265 260 261 262 263 264 265 263 263 266
279 280 280 279 277 277 276 274 273 272 271 271 270 269 268 267 266 265 264 262 258 257 256 257 256 254 248 249 257 267 261 262 262 262 264 264 263 265
277 276 275 275 273 272 272 271 268 267 267 267 265 264 265 264 263 262 262 259 256 253 251 252 255 255 253 253 252 259 266 262 261 262 263 264 266 270
271 270 269 266 265 265 264 262 262 262 262 261 260 261 262 261 256 258 260 259 256 252 251 255 259 262 260 254 251 253 259 265 266 263 263 263 262 263
263 262 257 257 257 258 257 258 257 257 257 256 256 257 256 255 255 255 256 256 254 254 255 259 260 257 254 255 254 255 257 260 263 266 267 267 263 261
257 256 256 255 254 254 254 255 254 255 253 251 251 250 251 251 253 258 255 254 252 252 253 253 255 256 254 255 253 255 254 256 258 258 260 267 268 269
Wind_Speed
13 13 10 6 5 5 5 7 8 6 11 7 5 12 9 8 10 8 7 11 14 13 11 11 11 11 11 13 14 15 16 18 20 21 21 22 23 25
11 14 13 8 10 7 9 8 2 5 4 3 6 5 10 9 11 9 8 12 14 12 12 13 13 13 13 14 16 17 17 19 21 22 22 22 24 26
14 14 15 11 9 9 6 4 4 3 3 2 2 3 9 10 7 6 6 5 6 13 13 13 14 14 15 16 17 17 18 21 21 23 22 23 26 28
14 13 15 9 12 10 7 8 6 4 4 4 2 3 4 7 6 6 5 4 5 10 14 14 15 15 15 17 18 17 19 21 23 23 23 24 28 29
13 14 13 13 11 9 9 9 5 3 2 4 4 2 2 3 3 3 4 5 4 9 14 14 16 16 17 17 18 18 20 23 23 22 23 27 28 30
9 10 10 12 11 11 9 9 7 5 4 6 3 3 3 2 3 3 5 3 4 4 9 10 12 14 15 17 17 20 21 22 21 23 25 28 29 27
8 8 9 9 12 13 9 7 9 7 5 5 3 3 3 3 6 4 3 2 3 4 3 3 3 3 5 12 14 17 19 21 22 25 28 27 27 32
11 9 9 12 16 20 18 20 16 11 6 4 3 3 4 3 4 4 3 3 2 3 3 3 3 5 4 4 12 17 19 21 24 25 23 29 32 33
10 10 10 9 13 12 16 17 14 11 9 7 6 4 4 5 5 4 4 3 4 3 1 5 3 5 4 5 13 16 19 19 20 26 29 30 32 33
11 11 11 12 12 12 11 8 6 4 6 5 5 4 4 5 5 4 4 3 1 2 2 3 2 3 2 2 12 12 11 17 22 24 26 28 28 29
9 11 12 13 19 22 13 11 6 4 7 8 8 11 8 8 6 3 3 2 2 3 1 2 2 2 0 1 2 9 15 18 20 22 22 24 25 28
7 9 17 16 25 24 11 10 9 7 6 3 5 7 9 8 13 8 4 3 3 1 1 1 2 4 4 2 2 4 4 13 17 18 19 22 25 11
6 6 6 22 24 22 14 8 7 7 7 5 4 3 4 4 3 3 5 4 3 2 4 2 2 1 1 4 1 1 4 7 7 9 16 21 24 21
7 6 6 19 19 20 12 14 7 7 4 4 4 4 5 5 4 4 4 4 3 3 4 4 3 3 3 3 3 0 4 6 6 7 9 15 20 22
5 11 15 14 13 10 13 9 7 4 4 4 5 6 5 4 6 6 5 5 5 2 3 3 3 3 3 3 4 5 8 3 7 7 8 9 9 10
13 8 9 9 8 5 2 5 4 5 5 5 4 3 4 5 4 4 3 3 2 1 0 3 4 3 2 3 5 7 6 4 5 7 8 9 9 8
9 7 7 6 6 6 5 5 4 3 4 3 3 3 3 4 2 3 2 2 3 3 1 2 0 1 2 4 3 5 5 6 6 8 8 9 8 8
5 6 6 6 5 4 3 3 2 4 3 3 3 4 4 4 4 2 2 2 3 2 2 1 1 3 4 5 10 5 4 3 5 7 8 8 9 9
2 3 3 3 3 3 2 2 2 2 3 3 3 3 3 3 4 3 3 2 2 2 2 2 2 3 2 2 4 9 1 4 6 7 7 7 10 10
3 3 4 3 2 3 3 3 2 3 2 2 2 3 4 3 3 3 4 3 3 2 1 0 2 3 5 4 2 4 11 5 6 7 8 8 10 20
4 4 3 2 2 2 2 2 3 3 3 3 2 3 3 3 2 2 3 5 4 3 3 3 3 4 1 3 3 4 4 9 10 7 9 9 8 7
3 4 2 3 3 3 2 2 2 2 2 2 2 2 2 2 3 3 3 3 3 3 3 1 1 1 1 3 4 5 6 6 10 16 16 14 6 6
3 3 2 2 2 1 2 2 2 1 1 2 3 3 4 3 3 3 3 3 3 3 3 2 1 1 3 3 3 4 5 8 6 9 5 13 14 16
Wind_Direction
205 204 205 198 160 169 167 180 154 173 203 209 173 195 185 181 194 193 193 221 229 233 245 265 267 275 287 299 306 312 314 315 318 321 321 320 321 318
203 200 205 197 193 183 191 191 167 152 187 171 202 173 181 189 193 185 196 213 232 235 251 254 263 271 281 291 300 308 309 313 315 317 319 318 317 318
202 202 204 198 186 187 165 155 153 169 135 215 125 182 174 183 184 182 188 204 229 233 247 257 264 271 281 291 298 302 307 311 313 315 314 316 315 315
200 198 202 189 188 170 177 169 163 166 159 146 122 132 175 186 168 176 199 215 221 232 250 261 268 274 284 287 297 299 306 306 311 310 312 309 313 317
201 197 193 184 184 175 172 176 158 124 139 140 146 141 129 139 146 176 176 219 226 238 254 264 266 274 288 295 295 301 305 308 308 307 304 310 314 314
188 191 181 186 182 170 171 171 137 138 161 151 98 117 125 130 123 165 218 202 231 221 244 246 257 273 280 292 296 300 299 304 304 302 311 311 314 317
173 172 174 175 172 172 159 159 162 173 158 137 119 135 159 160 186 181 203 182 235 227 227 235 243 259 267 285 284 291 299 303 308 313 313 315 317 319
177 172 154 155 172 170 183 184 175 164 158 138 137 146 168 174 158 166 160 173 235 206 169 230 222 258 247 237 275 300 306 307 313 316 319 322 320 316
177 165 163 167 165 173 186 183 182 171 165 151 153 163 162 181 153 162 190 179 198 211 171 266 221 256 244 259 295 300 308 317 327 331 326 320 319 319
177 167 159 161 173 170 162 160 159 167 153 150 131 162 182 163 142 162 194 191 9 246 171 250 219 249 220 259 286 307 337 342 337 329 327 323 323 323
164 166 170 170 179 171 166 162 160 185 191 180 185 202 186 182 177 179 204 135 246 229 127 275 356 310 303 286 62 4 359 344 336 332 329 330 331 332
153 170 173 173 175 173 166 159 178 197 172 165 216 215 216 223 218 201 171 173 176 293 189 162 8 26 329 296 11 34 6 340 331 336 340 336 332 330
158 167 178 187 174 175 176 164 190 154 179 183 191 205 215 210 217 212 185 167 164 201 135 104 116 88 208 302 271 50 6 320 322 331 326 333 333 335
171 158 163 189 180 183 164 192 166 142 171 175 186 196 196 199 199 191 157 122 93 130 125 131 161 155 177 293 275 261 340 308 327 319 323 319 328 331
140 153 161 187 184 190 194 176 196 190 172 190 207 205 199 182 137 120 103 100 91 103 139 145 155 174 165 206 277 309 324 314 305 318 311 321 322 321
153 141 155 170 163 160 125 217 202 199 205 213 209 140 125 141 144 135 136 125 109 212 172 154 148 153 214 228 255 279 290 299 306 307 313 312 311 316
150 152 160 172 194 208 201 199 194 173 184 154 142 143 139 136 120 118 118 136 166 179 221 336 90 186 232 236 258 247 263 275 286 309 315 309 313 315
156 163 158 166 178 191 206 178 154 162 133 130 131 142 149 154 144 148 125 149 183 182 161 195 131 13 352 304 226 240 261 265 306 299 305 309 310 314
111 158 150 149 134 131 150 131 139 96 98 127 136 148 139 142 153 166 164 164 197 170 199 163 144 127 106 231 286 291 181 299 297 301 306 308 304 308
72 94 85 76 86 116 131 134 118 126 109 130 137 147 154 146 159 183 183 172 173 169 177 299 175 185 174 209 224 256 295 291 285 296 306 302 290 300
73 77 76 87 91 93 101 103 127 151 151 149 157 157 158 147 177 175 184 184 159 148 192 217 230 235 113 56 348 296 273 293 301 302 307 300 308 298
81 92 66 83 105 121 128 128 129 134 143 150 158 146 143 151 167 172 173 169 194 187 207 219 245 48 84 191 260 285 292 304 309 303 304 293 295 307
75 86 77 78 65 88 114 130 137 165 173 179 166 174 159 176 179 186 185 201 170 180 181 216 211 179 214 210 220 274 284 303 312 317 304 308 309 305